This is the latest recevied weather packets stored in our database for station/object BARLOW-WX. If no packets are shown the sender has not sent any weather packets the latest 10 day(s).
| Time | Temp. | Humidity | Pressure | Rain* | Wind** | Luminosity | Snow |
|---|---|---|---|---|---|---|---|
| 1787643980 | 12.22° C | 92% | 990.7 hPa | 0 mm | - | - | - |
| 1787643081 | 12.22° C | 92% | 990.7 hPa | 0 mm | - | - | - |
| 1787642179 | 12.22° C | 92% | 990.7 hPa | 0 mm | - | - | - |
| 1787641280 | 12.22° C | 92% | 990.7 hPa | 0 mm | - | - | - |
| 1787640380 | 12.22° C | 92% | 990 hPa | 0 mm | - | - | - |
| 1787639481 | 12.22° C | 92% | 989.9 hPa | 0 mm | - | - | - |
| 1787638580 | 12.22° C | 92% | 989.9 hPa | 0 mm | - | - | - |
| 1787637681 | 12.78° C | 92% | 989.9 hPa | 0 mm | - | - | - |
| 1787636780 | 12.78° C | 91% | 989.3 hPa | 0 mm | - | - | - |
| 1787635880 | 12.78° C | 91% | 989.3 hPa | 0 mm | - | - | - |
| 1787634980 | 13.33° C | 91% | 989.3 hPa | 0 mm | - | - | - |
| 1787634080 | 13.33° C | 91% | 989.3 hPa | 0 mm | - | - | - |
| 1787633180 | 13.33° C | 90% | 988.7 hPa | 0 mm | - | - | - |
| 1787632278 | 13.89° C | 86% | 989.6 hPa | 0 mm | - | - | - |
| 1787631379 | 13.89° C | 86% | 989.6 hPa | 0 mm | - | - | - |
| 1787630488 | 13.89° C | 86% | 989.6 hPa | 0 mm | - | - | - |
| 1787629579 | 14.44° C | 83% | 989.8 hPa | 0 mm | - | - | - |
| 1787628679 | 14.44° C | 84% | 989.9 hPa | 0 mm | - | - | - |
| 1787627779 | 15° C | 84% | 989.9 hPa | 0 mm | - | - | - |
| 1787626881 | 15° C | 84% | 989.9 hPa | 0 mm | - | - | - |
| 1787625979 | 15° C | 81% | 989.8 hPa | 0 mm | - | - | - |
| 1787625080 | 15.56° C | 80% | 990.2 hPa | 0 mm | - | - | - |
| 1787624179 | 15.56° C | 80% | 990.3 hPa | 0 mm | - | - | - |
| 1787623284 | 16.11° C | 85% | 990 hPa | 0 mm | - | - | - |
| 1787622378 | 16.11° C | 78% | 990.1 hPa | 0 mm | - | - | - |
* Rain latest hour (hover to see other rain measurements)
** Current wind speed in m/s (hover to see current wind gust speed)